Погода в Гуляшоре

Россия / Республика Коми     59°26′07″N   49°31′01″E
темп.,
°C
ветер,
м/с
пор.,
м/с
влажн.,
%
обл.,
%
осадки,
мм/ч
давл.,
гПа
погр.,
м
24 июля, сб
сб2400:00+12з3799100 1.1 1000574
03:00+10сз4897100 1.3 1002540
06:00+10сз4894100 0.0 1004578
09:00+11сз467661 0.1 1006755
12:00+16сз46357 0.0 10072363
15:00+17сз563287 0.0 10082465
18:00+14сз47485 0.0 10111639
21:00+8сз2568100 0.0 101399
25 июля, вс
вс2500:00+6зсз248037 0.0 101565
03:00+5з24825 0.0 101664
06:00+9зюз2766100 0.0 1017233
09:00+14зюз465298 0.0 1017606
12:00+17з4741100 0.0 10172371
15:00+16зсз3641100 0.0 10182001
18:00+14зюз2564100 0.0 1018159
21:00+12з256899 0.0 1019115
26 июля, пн
пн2600:00+12зюз256999 0.0 1019119
03:00+9зюз268213 0.0 1020109
06:00+13зюз396893 0.0 1019263
09:00+15з376589 0.0 1019424
12:00+18зсз5967100 0.5 10181122
15:00+16сз51084100 1.3 1017492
18:00+16з2590100 3.2 1016164
21:00+13з3999100 7.1 1016301
27 июля, вт
вт2700:00+12сз299788 0.8 1016277
03:00+9сз289955 0.8 1017250
06:00+10ссз3695100 0.0 1018443
09:00+11ссз358684 0.1 1018653
12:00+15сз3559100 0.1 10181442
15:00+16сз365675 0.2 10171536
18:00+16сз365336 0.0 1017587
21:00+10ссз12791 0.0 101815
28 июля, ср
ср2800:00+8зюз22825 0.0 101817
03:00+8зюз25815 0.0 101790
06:00+12юз366758 0.0 1016192
09:00+18юз585151 0.0 1013795
12:00+23зюз6115485 0.1 10091851
15:00+23зюз5115656 0.4 10061247
18:00+16ссв6139592 2.0 1006570
21:00+15зюз41297100 10.4 1006361